sat.trackr.live / text

‹ back to catalog

STARLINK-32468

NORAD 62149 · 2024-224L

PAYLOAD ACTIVE UNKNOWN

§ Identity

Operator
Country
US
Launch date
2024-11-30
Launch site
AFETR
Launch vehicle
Mass (kg)
RCS (m²)

Purposes: comms

External: N2YO · Heavens-Above · Gunter

§ Orbital elements

Epoch: 2026-05-25T03:31:57.051840Z

Period
94.27 min
Inclination
43.0022°
Eccentricity
0.0001538
Mean motion
15.27608123 rev/d
Perigee alt
481.9 km
Apogee alt
484.0 km
Semi-major
6,861.1 km
B*
7.1317e-4
RAAN
86.2766°
Arg perigee
245.6164°
Mean anomaly
114.4528°
Rev number
8,401

§ Raw data

STARLINK-324681 62149U 24224L   26145.14718810  .00019431  00000+0  71317-3 0  99932 62149  43.0022  86.2766 0001538 245.6164 114.4528 15.27608123 84018

JSON: /api/v1/satellites/62149 · /tle

For live sub-satellite position, see the globe view (requires WebGL).

§ Visibility from observer

Set your observer location to see the next 7 days of passes ≥ 10°. The values pass through the URL so the page stays shareable.

No JS? Fill the form by hand. The geolocation button needs JavaScript.